Location: Centerville
(32.8776°N, 96.6203°W)
Time: 00:39:55
(UTC+00:00)

ATLAS CENTAUR R/B - Pass Details

Date: 17 June 2021
Orbit: 472 x 671 km, 64.6° (Epoch: 13 June)

Event Time Altitude Azimuth Distance (km) Brightness Sun altitude
Rises 05:43:08 0° 327° (NNW) 2,850 5.9 -32.8°
Reaches altitude 10° 05:45:22 10° 323° (NW) 1,974 4.8 -32.8°
Enters shadow 05:47:04 23° 316° (NW) 1,346 3.7 -32.9°
